sat.trackr.live / text

‹ back to catalog

STARLINK-31805

NORAD 59745 · 2024-090R

PAYLOAD ACTIVE UNKNOWN

§ Identity

Operator
Country
US
Launch date
2024-05-13
Launch site
AFETR
Launch vehicle
Mass (kg)
RCS (m²)

Purposes: comms

External: N2YO · Heavens-Above · Gunter

§ Orbital elements

Epoch: 2026-05-25T04:30:01.886112Z

Period
94.26 min
Inclination
43.0030°
Eccentricity
0.0001433
Mean motion
15.27619306 rev/d
Perigee alt
481.9 km
Apogee alt
483.9 km
Semi-major
6,861.1 km
B*
-3.9427e-4
RAAN
111.1179°
Arg perigee
268.9744°
Mean anomaly
91.0943°
Rev number
11,514

§ Raw data

STARLINK-318051 59745U 24090R   26145.18752183 -.00011109  00000+0 -39427-3 0  99992 59745  43.0030 111.1179 0001433 268.9744  91.0943 15.27619306115142

JSON: /api/v1/satellites/59745 · /tle

For live sub-satellite position, see the globe view (requires WebGL).

§ Visibility from observer

Set your observer location to see the next 7 days of passes ≥ 10°. The values pass through the URL so the page stays shareable.

No JS? Fill the form by hand. The geolocation button needs JavaScript.